Regional Weather Roundup
Issued by NWS Portland, ME

Current Version | Previous Version | Text Only | Print | Product List | Glossary Off
Versions: 1 2 3 4 5 6 7 8 9 10 11 12 13 14 15 16 17 18 19 20 21 22 23 24 25 26 27 28 29 30 31 32 33 34 35 36 37 38 39 40 41 42 43 44 45 46 47 48 49 50
000 ASUS41 KGYX 191105 RWRGYX WEATHER ROUNDUP FOR MAINE AND NEW HAMPSHIRE NATIONAL WEATHER SERVICE GRAY ME 700 AM EDT THU OCT 19 2017 MEZ002-005-006-010-012-015-018-020-021-024-026-027-029-191200- MAINE CITY SKY/WX TMP DP RH WIND PRES REMARKS PORTLAND PTCLDY 40 38 93 CALM 30.19F SANFORD CLEAR 32 31 96 CALM 30.20F BAR HARBOR FOG 39 39 100 CALM 30.21S VSB 3/4 WISCASSET CLOUDY 39 37 92 CALM 30.20F ROCKLAND CLEAR 53 52 96 S7 30.19F FRYEBURG FOG 31 31 100 NW3 30.18F VSB 1/2 LEWISTONAUBURN CLEAR 35 33 92 CALM 30.18F AUGUSTA CLEAR 44 43 96 S5 30.18F WATERVILLE CLEAR 42 42 100 SW5 30.14F FOG BANGOR PTCLDY 39 39 100 S3 30.18F GREENVILLE N/A 44 35 70 SE5 30.11F MILLINOCKET CLEAR 32 31 96 CALM 30.15F HOULTON CLEAR 46 32 58 VRB5 30.13F PRESQUE ISLE CLEAR 35 31 85 VRB3 30.11F FRENCHVILLE CLEAR 39 29 67 SE9 30.05F CARIBOU CLEAR 38 29 70 S5 30.08F $$ NHZ002-005-008-009-011-012-014-191200- NEW HAMPSHIRE CITY SKY/WX TMP DP RH WIND PRES REMARKS PORTSMOUTH PTCLDY 42 42 99 CALM 30.19F ROCHESTER CLEAR 40 36 86 CALM 30.19F NASHUA CLEAR 38 36 92 W3 30.22S MANCHESTER CLEAR 41 39 93 CALM 30.20S CONCORD CLOUDY 33 31 92 CALM 30.21F LACONIA FOG 42 42 100 CALM 30.19F VSB 1/4 PLYMOUTH FOG 32 32 100 CALM 30.20F VSB 3/4 BERLIN FOG 29 29 100 CALM 30.16F VSB 1/4 WHITEFIELD CLEAR 29 28 96 CALM 30.15F JAFFREY PTCLDY 39 39 100 S6 30.21F FOG KEENE FOG 35 34 96 CALM 30.22F VSB 1/4 LEBANON PTCLDY 35 33 92 CALM 30.18F MT WASHINGTON PTCLDY 41 34 75 SW33G40 N/A $$ VTZ005-007-008-191200- VERMONT CITY SKY/WX TMP DP RH WIND PRES REMARKS ST JOHNSBURY N/A 35 35 100 MISG 30.14F MONTPELIER CLEAR 40 39 97 CALM 30.17F BURLINGTON PTCLDY 57 46 66 S12 30.10F $$ MAZ007-012-024-CTZ003-RIZ002-NYZ038-NYZ072-191200- SOUTHERN NEW ENGLAND AND NY CITY SKY/WX TMP DP RH WIND PRES REMARKS BOSTON PTCLDY 53 51 93 SW8 30.22F WORCESTER CLEAR 47 42 83 W7 30.21F NANTUCKET CLEAR 59 59 100 S8 30.27S HARTFORD PTCLDY 41 40 96 CALM 30.23S ALBANY PTCLDY 49 45 86 S7 30.19F NEW YORK CITY PTCLDY 59 46 62 SW7 30.24F $$ ANZ081-ANZ082-ANZ150-NHZ014-MEZ023>029-191200- COASTAL MARINE OBSERVATIONS STATION/POSITION TIME TEMP WIND PRES WAVE AIR SEA DIR/SP/G HT/PER (UTC) (F) (DEG/KT/KT) (MB) (FT/S) MOUNT DESERT ROC 1000 57 180/ 16/ 17 1023.4F MATINICUS ROCK 1000 56 200/ 16/ 18 1022.8S ISLE OF SHOALS 1000 54 230/ 9/ 10 1022.8F JEFFREYS LEDGE 1006 58 N/A 2/10 CASHES LEDGE BUO 1050 56 55 1023.3F 2/11 GEORGES BANK BUO 0950 57 58 1026.0 3/ 8 $$ .............KEY.............. WCI - WIND CHILL TC - TEMPERATURE IN CELSIUS VSB - VISIBILITY IN MILES HX - HEAT INDEX FAIR- INDICATES FEW OR NO CLOUDS BELOW 12,000 FT, WITH NO SIGNIFICANT WEATHER AND/OR OBSTRUCTIONS TO VISIBILITY.

USA.gov is the U.S. government's official web portal to all federal, state and local government web resources and services.